Погода в Сухиничи

Погода в Сухиничи : погода сейчас, прогноз погоды и архив. Всё, что Вы хотите узнать о погоде в Сухиничи!

Хотите узнать прогноз погоды в Сухиничи? Тогда Вам сюда: Погода в Сухиничи

Поиск расширенной информации на нашем сайте:

Другие новости

Новости СМИ2

Главная страница сайта

Новости сайта

02.10.2013

Напоминаем, что на нашем новом сайте вы можете получить высокодетализированные прогнозы погоды по пунктам России, СНГ и мира (включающие важные для авиации метеовеличины, такие как направление и скорость ветра, видимость, явления погоды, количество и форма облачности, нижняя и верхняя граница облачности), а также ознакомиться с разнообразными материалами по авиационной метеорологии и подборкой полезных ссылок на эту тему.

Сайт Метеоцентр.Азия посвящён разработке технологий оптимизации авиаметеорологического обслуживания, включая проектирование и перспективное создание нескольких автоматизированных авиаметеорологических систем:
- система выпуска высокодетальных прогностических карт явлений погоды для нижнего воздушного пространства по России и ближнему зарубежью;
- система верификации прогнозов TAF (выпускаемых синоптиками официальных АМСГ РФ и ближнего зарубежья) и AUTOTAF (выпускаемых сайтом Метеоцентр.Азия) - выявление ошибок, онлайн-сопоставление с фактической погодой METAR, автоматическое внесение коррективов в прогнозы при резком отклонении фактической погоды от прогноза, подсчёт оправдываемости прогнозов по элементам и в целом;
- система обработки, анализа и отображения авиаметеорологической информации для применения провайдерами метеорологической информации.


Погода в Сухиничи - сегодня

Время (UTC), дата Ветер
(°,м/с) 
Видим.   Явления Облачность Т
(°С)
Тd
(°С)
f(%) Тe
(°С)
Pmin
(гПа)
dP
(гПа)
Po
(мм)
O2
(г/м3)
Тmin Tmax R s Состояние
почвы
18 24.06.17 140 (ЮВ) 28000 м    8/8 2000 м средняя 
[Ac As]
+15.2 +8 62 +17  1007.7  0.3  735  279    +19.9       
21 24.06.17 200 (Ю) 22000 м    3/3 2000 м средняя 
[Ac trans]
+12.3 +7.3 71 +14  1008.1  735  282           
00 25.06.17 200 (Ю) 18000 м    3/0 верхняя 
[Ci fib]
+10 +7.1 82 +11  1008.3  735  284           
03 25.06.17 250 (З) 25000 м    9/9 2000 м средняя 
[Ac As]
+14.4 +9.1 70 +16  1007.7  0.1  735  280  +8.4         
06 25.06.17 250 (З) 22000 м    9/8 600 м средняя 
[Sc|Ac As]
+14.8 +11.2 79 +18  1007.7  0.1  735  279  +8.4         
09 25.06.17 250 (З) 28000 м  {ливн. осадки}  9/9 600 м кучево-дожд. 
[Cb cap]
+18.3 +13 71 +25  1007.7  0.3  735  275           
12 25.06.17 240 (ЮЗ) 30000 м  {ливн. осадки}  8/6 600 м средняя 
[Sc diur, vesp|Ac cuf]
+20.8 +13.2 62 +27  1007.2  -0.3  735  273           
15 25.06.17 230 (ЮЗ) 15000 м  в посл. час ливневой дождь  9/9 600 м кучево-дожд. 
[Cb cap]
+17.1 +15.3 89 +29  1007.7  0.2  735  275      0.5     
18 25.06.17 220 (ЮЗ) 12000 м  в посл. час ливневой дождь  9/9 600 м кучево-дожд. 
[Cb cap]
+17.3 +15.5 89 +28  1007.5  735  275    +22.1  0.6     
21 25.06.17 230 (ЮЗ) 10 км    9/9 600 м кучево-дожд. 
[Cb cap]
+14.8 +13.3 91 +22  1008.5  0.6  735  278           
00 26.06.17 тихо ()   10 км    3/0 верхняя 
[Ci fib]
+12.5 +11.5 94 +16  1009.1  0.3  736  281           
03 26.06.17 190 (Ю) 20000 м    6/5 2000 м средняя, верхняя 
[Ac trans|Ci fib]
+15.8 +12.2 79 +22  1008.2  -0.4  735  278  +11.9    0.1     
06 26.06.17 210 (ЮЗ) 30000 м    4/0 верхняя 
[Ci]
+21.1 +14 64 +29  1007.1  -0.6  735  272  +11.9         
09 26.06.17 260 (З) 40000 м    9/9 2000 м средняя 
[Ac As]
+24.2 +15.5 58 +34  1006.4  -0.5  735  269           
12 26.06.17 тихо () {14}  10 км  слаб. ливневой дождь{гроза}  9/9 600 м кучево-дожд. 
[Cb cap]
+18.9 +18.2 96 +34  1005.7  -1.1  734  272           
15 26.06.17 240 (ЮЗ) 26000 м  {гроза, ливн. осадки}  9/9 600 м кучево-дожд. 
[Cb cap]
+21.5 +15.9 70 +32  1004.3  -1.2  733  270      10     
18 26.06.17 250 (З) 10 км  слаб. ливневой дождь{гроза}  9/9 600 м кучево-дожд. 
[Cb cap]
+16.2 +15.2 94 +27  1004.9  0.3  733  276    +26  17     
21 26.06.17 260 (З) 8000 м  дымка{ливн. осадки}  9/9 600 м 
[Sc]
+15.4 +14.9 97 +26  1005.7  0.5  733  277           
00 27.06.17 220 (ЮЗ) 7000 м  дымка{ливн. осадки}  9/9 600 м 
[Sc]
+14 +13.5 97 +22  1007.1  1.2  734  279           
03 27.06.17 290 (З) 5000 м  дымка  9/9 600 м кучево-дожд. 
[Cb cap]
+14.1 +13.5 96 +22  1004.7  0.7  735  279  +13.5       
06 27.06.17 340 (С) 10 км  в посл. час ливневой дождь  9/9 600 м кучево-дожд. 
[Cb cap]
+13.6 +12.2 91 +19  1008.6  0.9  736  280  +13.5    0.7     
09 27.06.17 270 (З) 30000 м    8/8 600 м 
[Cu med, cong]
+19.2 +11.9 63 +24  1009.2  736  275           
12 27.06.17 280 (З) 40000 м    8/8 600 м 
[Cu med, cong]
+20.1 +9.5 50 +21  1009.8  0.6  737  275           
15 27.06.17 290 (З) 40000 м    4/4 1000 м 
[Cu hum]
+20.1 +7.1 43 +20  1010.1  0.2  737  275      0.8     
18 27.06.17 тихо ()   25000 м    ясно 
+14 +9.7 75 +15  1011.5  0.9  738  281    +21.6       
Время (UTC), дата Ветер
(°,м/с) 
Видим.   Явления Облачность Т
(°С)
Тd
(°С)
f(%) Тe
(°С)
Pmin
(гПа)
dP
(гПа)
Po
(мм)
O2
(г/м3)
Тmin Tmax R s Состояние
почвы

Для получения пояснительной информации подведите курсор к названию столбца.

ПОГОДА в Сухиничи - архив

Всё, что Вы хотите узнать о погоде в Сухиничи - удобно и подробно!

Выберите нужную дату (начиная с 1 января 2015* года) и нажмите кнопку "Найти".
Будут отображены архивные сводки погоды по пункту Сухиничи, начиная с указанной даты.


Отображать данные в формате CSV (для использования в таблицах Excel)


Внимание! Наш архив погоды предназначен исключительно для личного некоммерческого использования в познавательных целях. Если Вам необходимы официальные справки о состоянии погоды (для производственных, юридических, коммерческих и т.п. целей), обращайтесь в органы Росгидромета.

*Примечание: данная дата относится к архиву по метеостанциям СССР (Россия, СНГ, Балтия).
Архив по метеостанциям Зарубежной Европы и Азии (кроме Китая) хранится 10 дней, по другим регионам земного шара (Китай, Африка, Америка, Австралия, Океания) - 1 день.

Сухиничи - район местоположения метеостанции


Название, широта, долгота, высота метеостанции:
Сухиничи 54.1°ш. 35.3°д. 238 м над ур. моря [Российская Федерация]

Дополнительная информация

В oтличие oт бoльшинства пoгoдных сайтoв мы публикуем пoдрoбную метеoинфoрмацию в детальнoм прoфессиoнальнoм фoрмате.

Характеристики температуры и влажнoсти вoздуха измеряются на высoте 2 м в тени вдали oт зданий и деревьев.
Скoрoсть ветра измеряется на высoте 10 м (на урoвне рoста челoвека скoрoсть ветра ниже в 1.5-2 раза). Если метеoстанция нахoдится в гoрoде или в лесу, тo скoрoсть ветра занижена на 2-4 м/с пo сравнению с oткрытым местoм. Скoрoсть ветра над акватoриями крупных рек и oзёр, а также на вершинах хoлмoв на 2-5 м/с выше, чем в oбычных услoвиях.
Атмoсфернoе давление в разных тoчках местнoсти мoжет значительнo oтличаться oт давления на метеoстанции, в зависимoсти oт услoвий рельефа (при пoдъёме на 10 м давление пoнижается примернo на 1 мм рт.ст.).